Torna al catalogo

SL-12 DEB

LostHEO
NORAD 44556·DEBRIS·🇷🇺 Russia

Lanciato Sep 2, 2010 da Baikonur Cosmodrome

Loading…

Prossimi Passaggi (prossime 24 ore)

TLE

ObsoletoSource: Space-Track

Epoca: Oct 16, 2019, 09:53 UTC

1 44556U 10041AB  19289.41204393  .00017402  00000-0  27148-1 0  9992
2 44556  65.2159 271.9072 5763866  34.6492 352.3256  4.23910055  1782

Traccia SL-12 DEB in tempo reale con AllMySat

Download on the App Store